| time (UTC) | temp F | wind direction | speed knots | gust knots | rain 1hr in | rain 24hr in | rain mn in | humidity % | barometer mb |
| 20260906025805 | 75 | 180 | 0.0 | 4.3 | 0.00 | 0.00 | 0.00 | 91 | 1017.3 |
| 20260906025259 | 75 | 28 | 0.9 | 4.3 | 0.00 | 0.00 | 0.00 | 91 | 1017.2 |
| 20260906024758 | 75 | 21 | 3.5 | 5.2 | 0.00 | 0.00 | 0.00 | 91 | 1017.1 |
| 20260906024257 | 75 | 62 | 2.6 | 4.3 | 0.00 | 0.00 | 0.00 | 90 | 1017.2 |
| 20260906023753 | 75 | 104 | 0.9 | 1.7 | 0.00 | 0.00 | 0.00 | 90 | 1017.1 |
| 20260906023248 | 75 | 40 | 3.5 | 6.1 | 0.00 | 0.00 | 0.00 | 90 | 1017.0 |
| 20260906022744 | 76 | 13 | 2.6 | 6.1 | 0.00 | 0.00 | 0.00 | 90 | 1017.1 |
| 20260906022239 | 76 | 59 | 0.9 | 2.6 | 0.00 | 0.00 | 0.00 | 90 | 1016.7 |
| 20260906021736 | 76 | 44 | 1.7 | 4.3 | 0.00 | 0.00 | 0.00 | 89 | 1016.9 |
| 20260906021234 | 77 | 53 | 2.6 | 6.1 | 0.00 | 0.00 | 0.00 | 89 | 1016.7 |
| 20260906020729 | 77 | 73 | 2.6 | 6.1 | 0.00 | 0.00 | 0.00 | 89 | 1016.9 |
| 20260906020223 | 77 | 23 | 2.6 | 4.3 | 0.00 | 0.00 | 0.00 | 89 | 1016.7 |
| 20260906015718 | 77 | 62 | 1.7 | 2.6 | 0.00 | 0.00 | 0.00 | 88 | 1016.6 |
| 20260906015216 | 77 | 166 | 1.7 | 5.2 | 0.00 | 0.00 | 0.00 | 88 | 1016.6 |
| 20260906014711 | 78 | 355 | 3.5 | 4.3 | 0.00 | 0.00 | 0.00 | 88 | 1016.4 |
| 20260906014207 | 78 | 98 | 0.9 | 11.3 | 0.00 | 0.00 | 0.00 | 88 | 1016.4 |
| 20260906013703 | 78 | 116 | 1.7 | 4.3 | 0.00 | 0.00 | 0.00 | 87 | 1016.4 |
| 20260906013157 | 79 | 170 | 1.7 | 2.6 | 0.00 | 0.00 | 0.00 | 87 | 1016.4 |
| 20260906012657 | 79 | 60 | 1.7 | 5.2 | 0.00 | 0.00 | 0.00 | 87 | 1016.2 |
| 20260906012152 | 79 | 133 | 2.6 | 6.1 | 0.00 | 0.00 | 0.00 | 86 | 1016.3 |
| 20260906011648 | 80 | 40 | 3.5 | 7.0 | 0.00 | 0.00 | 0.00 | 85 | 1016.0 |
| 20260906011142 | 80 | 357 | 2.6 | 5.2 | 0.00 | 0.00 | 0.00 | 85 | 1016.3 |
| 20260906010638 | 80 | 169 | 2.6 | 4.3 | 0.00 | 0.00 | 0.00 | 85 | 1016.1 |
| 20260906010134 | 81 | 10 | 4.3 | 7.8 | 0.00 | 0.00 | 0.00 | 84 | 1016.2 |
| 20260906005633 | 81 | 34 | 4.3 | 6.1 | 0.00 | 0.00 | 0.00 | 83 | 1015.9 |
| 20260906005133 | 81 | 68 | 3.5 | 5.2 | 0.00 | 0.00 | 0.00 | 83 | 1015.9 |
| 20260906004632 | 81 | 2 | 2.6 | 14.8 | 0.00 | 0.00 | 0.00 | 83 | 1015.6 |
| 20260906004127 | 82 | 92 | 3.5 | 8.7 | 0.00 | 0.00 | 0.00 | 82 | 1015.7 |
| 20260906003622 | 82 | 49 | 3.5 | 7.0 | 0.00 | 0.00 | 0.00 | 82 | 1015.7 |
| 20260906003118 | 82 | 54 | 2.6 | 8.7 | 0.00 | 0.00 | 0.00 | 82 | 1015.6 |
| 20260906002613 | 83 | 67 | 4.3 | 7.8 | 0.00 | 0.00 | 0.00 | 82 | 1015.7 |
| 20260906002107 | 83 | 307 | 4.3 | 9.6 | 0.00 | 0.00 | 0.00 | 81 | 1015.7 |
| 20260906001602 | 84 | 245 | 0.9 | 5.2 | 0.00 | 0.00 | 0.00 | 81 | 1015.6 |
| 20260906001057 | 84 | 147 | 3.5 | 8.7 | 0.00 | 0.00 | 0.00 | 80 | 1015.6 |
| 20260906000553 | 85 | 359 | 3.5 | 7.0 | 0.00 | 0.00 | 0.00 | 79 | 1015.7 |
| 20260906000048 | 85 | 278 | 4.3 | 6.1 | 0.00 | 0.00 | 0.00 | 78 | 1015.2 |
| 20260905235547 | 85 | 347 | 7.0 | 9.6 | 0.00 | 0.00 | 0.00 | 78 | 1015.4 |
| 20260905235042 | 86 | 19 | 2.6 | 7.8 | 0.00 | 0.00 | 0.00 | 78 | 1015.2 |
| 20260905234537 | 86 | 122 | 3.5 | 8.7 | 0.00 | 0.00 | 0.00 | 77 | 1015.2 |
| 20260905234033 | 86 | 3 | 1.7 | 7.0 | 0.00 | 0.00 | 0.00 | 77 | 1015.4 |
| 20260905233533 | 87 | 329 | 3.5 | 6.1 | 0.00 | 0.00 | 0.00 | 77 | 1015.0 |
| 20260905233033 | 87 | 175 | 2.6 | 8.7 | 0.00 | 0.00 | 0.00 | 76 | 1015.3 |
| 20260905232528 | 88 | 326 | 3.5 | 11.3 | 0.00 | 0.00 | 0.00 | 74 | 1015.4 |
| 20260905232024 | 88 | 349 | 2.6 | 6.1 | 0.00 | 0.00 | 0.00 | 74 | 1015.2 |
| 20260905231519 | 88 | 58 | 3.5 | 7.8 | 0.00 | 0.00 | 0.00 | 75 | 1015.1 |
| 20260905231015 | 88 | 21 | 3.5 | 6.1 | 0.00 | 0.00 | 0.00 | 74 | 1015.1 |
| 20260905230514 | 89 | 43 | 1.7 | 4.3 | 0.00 | 0.00 | 0.00 | 74 | 1014.9 |
| 20260905230013 | 89 | 328 | 1.7 | 6.1 | 0.00 | 0.00 | 0.00 | 74 | 1015.1 |
| 20260905225507 | 89 | 21 | 4.3 | 6.1 | 0.00 | 0.00 | 0.00 | 72 | 1015.2 |
| 20260905225003 | 89 | 74 | 7.0 | 7.8 | 0.00 | 0.00 | 0.00 | 72 | 1015.1 |
| 20260905224458 | 89 | 11 | 2.6 | 7.0 | 0.00 | 0.00 | 0.00 | 72 | 1015.1 |
| 20260905223956 | 89 | 72 | 4.3 | 7.8 | 0.00 | 0.00 | 0.00 | 72 | 1015.1 |
| 20260905223455 | 89 | 219 | 3.5 | 7.0 | 0.00 | 0.00 | 0.00 | 72 | 1015.1 |
| 20260905222949 | 90 | 137 | 1.7 | 7.0 | 0.00 | 0.00 | 0.00 | 71 | 1015.1 |
| 20260905222444 | 90 | 343 | 2.6 | 2.6 | 0.00 | 0.00 | 0.00 | 71 | 1015.0 |
| 20260905221939 | 91 | 56 | 2.6 | 4.3 | 0.00 | 0.00 | 0.00 | 70 | 1014.9 |
| 20260905221436 | 91 | 228 | 2.6 | 8.7 | 0.00 | 0.00 | 0.00 | 69 | 1014.9 |
| 20260905220932 | 91 | 1 | 3.5 | 7.0 | 0.00 | 0.00 | 0.00 | 69 | 1014.9 |
| 20260905220428 | 91 | 327 | 3.5 | 7.0 | 0.00 | 0.00 | 0.00 | 69 | 1015.2 |
| 20260905215926 | 91 | 71 | 4.3 | 7.0 | 0.00 | 0.00 | 0.00 | 68 | 1015.0 |
| 20260905215422 | 92 | 84 | 3.5 | 5.2 | 0.00 | 0.00 | 0.00 | 69 | 1015.0 |
| 20260905214919 | 92 | 213 | 3.5 | 5.2 | 0.00 | 0.00 | 0.00 | 68 | 1015.0 |
| 20260905214414 | 90 | 314 | 1.7 | 5.2 | 0.00 | 0.00 | 0.00 | 70 | 1015.0 |
| 20260905213914 | 91 | 49 | 5.2 | 7.0 | 0.00 | 0.00 | 0.00 | 70 | 1015.0 |
| 20260905213410 | 92 | 94 | 3.5 | 7.0 | 0.00 | 0.00 | 0.00 | 69 | 1014.9 |
| 20260905212905 | 91 | 239 | 0.9 | 4.3 | 0.00 | 0.00 | 0.00 | 70 | 1015.0 |
| 20260905212401 | 90 | 196 | 0.0 | 6.1 | 0.00 | 0.00 | 0.00 | 71 | 1014.9 |
| 20260905211859 | 91 | 0 | 2.6 | 9.6 | 0.00 | 0.00 | 0.00 | 70 | 1014.8 |
| 20260905211355 | 91 | 284 | 3.5 | 4.3 | 0.00 | 0.00 | 0.00 | 69 | 1014.9 |
| 20260905210851 | 91 | 266 | 3.5 | 6.1 | 0.00 | 0.00 | 0.00 | 69 | 1015.0 |
| 20260905210351 | 92 | 163 | 0.9 | 2.6 | 0.00 | 0.00 | 0.00 | 68 | 1014.9 |
| 20260905205850 | 91 | 10 | 5.2 | 6.1 | 0.00 | 0.00 | 0.00 | 71 | 1014.9 |
| 20260905205345 | 93 | 50 | 2.6 | 6.1 | 0.00 | 0.00 | 0.00 | 68 | 1015.1 |
| 20260905204844 | 92 | 111 | 2.6 | 5.2 | 0.00 | 0.00 | 0.00 | 70 | 1015.1 |
| 20260905204341 | 93 | 313 | 2.6 | 4.3 | 0.00 | 0.00 | 0.00 | 69 | 1015.3 |
| 20260905203839 | 93 | 152 | 1.7 | 7.0 | 0.00 | 0.00 | 0.00 | 69 | 1015.1 |
| 20260905203335 | 93 | 182 | 0.9 | 4.3 | 0.00 | 0.00 | 0.00 | 68 | 1015.2 |
| 20260905202831 | 93 | 0 | 3.5 | 7.8 | 0.00 | 0.00 | 0.00 | 68 | 1015.1 |
| 20260905202325 | 92 | 73 | 0.9 | 6.1 | 0.00 | 0.00 | 0.00 | 69 | 1015.2 |
| 20260905201821 | 93 | 336 | 2.6 | 6.1 | 0.00 | 0.00 | 0.00 | 68 | 1015.2 |
| 20260905201316 | 93 | 248 | 4.3 | 5.2 | 0.00 | 0.00 | 0.00 | 67 | 1015.4 |
| 20260905200810 | 92 | 355 | 0.9 | 4.3 | 0.00 | 0.00 | 0.00 | 69 | 1015.2 |
| 20260905200307 | 94 | 328 | 1.7 | 5.2 | 0.00 | 0.00 | 0.00 | 69 | 1015.3 |
| 20260905195804 | 95 | 56 | 2.6 | 5.2 | 0.00 | 0.00 | 0.00 | 67 | 1015.2 |
| 20260905195259 | 93 | 310 | 0.9 | 4.3 | 0.00 | 0.00 | 0.00 | 68 | 1015.2 |
| 20260905194755 | 92 | 340 | 1.7 | 4.3 | 0.00 | 0.00 | 0.00 | 69 | 1015.2 |
| 20260905194254 | 92 | 21 | 2.6 | 7.0 | 0.00 | 0.00 | 0.00 | 69 | 1015.2 |
| 20260905193748 | 91 | 87 | 1.7 | 6.1 | 0.00 | 0.00 | 0.00 | 72 | 1015.4 |
| 20260905193243 | 91 | 269 | 5.2 | 7.8 | 0.00 | 0.00 | 0.00 | 72 | 1015.2 |
| 20260905192739 | 92 | 0 | 2.6 | 4.3 | 0.00 | 0.00 | 0.00 | 70 | 1015.4 |
| 20260905192235 | 95 | 7 | 3.5 | 7.8 | 0.00 | 0.00 | 0.00 | 68 | 1015.4 |
| 20260905191734 | 95 | 24 | 3.5 | 4.3 | 0.00 | 0.00 | 0.00 | 67 | 1015.4 |
| 20260905191232 | 95 | 317 | 1.7 | 2.6 | 0.00 | 0.00 | 0.00 | 66 | 1015.4 |
| 20260905190731 | 91 | 168 | 0.9 | 4.3 | 0.00 | 0.00 | 0.00 | 72 | 1015.4 |
| 20260905190230 | 92 | 287 | 1.7 | 4.3 | 0.00 | 0.00 | 0.00 | 71 | 1015.5 |
| 20260905185730 | 92 | 317 | 1.7 | 4.3 | 0.00 | 0.00 | 0.00 | 70 | 1015.5 |
| 20260905185225 | 95 | 93 | 3.5 | 5.2 | 0.00 | 0.00 | 0.00 | 67 | 1015.4 |
| 20260905184719 | 93 | 343 | 1.7 | 5.2 | 0.00 | 0.00 | 0.00 | 68 | 1015.6 |
| 20260905184218 | 93 | 130 | 1.7 | 5.2 | 0.00 | 0.00 | 0.00 | 70 | 1015.8 |
| 20260905183712 | 93 | 332 | 2.6 | 2.6 | 0.00 | 0.00 | 0.00 | 68 | 1015.7 |
| 20260905183207 | 94 | 81 | 2.6 | 6.1 | 0.00 | 0.00 | 0.00 | 69 | 1015.7 |
| 20260905182707 | 93 | 340 | 2.6 | 5.2 | 0.00 | 0.00 | 0.00 | 68 | 1015.6 |
| 20260905182207 | 94 | 228 | 2.6 | 6.1 | 0.00 | 0.00 | 0.00 | 68 | 1015.8 |
| 20260905181702 | 93 | 209 | 0.9 | 6.1 | 0.00 | 0.00 | 0.00 | 68 | 1015.8 |
| 20260905181201 | 94 | 67 | 2.6 | 6.1 | 0.00 | 0.00 | 0.00 | 66 | 1015.9 |
| 20260905180655 | 93 | 320 | 5.2 | 7.0 | 0.00 | 0.00 | 0.00 | 68 | 1015.9 |
| 20260905180151 | 93 | 254 | 2.6 | 6.1 | 0.00 | 0.00 | 0.00 | 67 | 1015.9 |
| 20260905175650 | 94 | 6 | 2.6 | 7.0 | 0.00 | 0.00 | 0.00 | 67 | 1015.8 |
| 20260905175146 | 94 | 56 | 1.7 | 7.0 | 0.00 | 0.00 | 0.00 | 67 | 1015.9 |
| 20260905174641 | 94 | 313 | 2.6 | 5.2 | 0.00 | 0.00 | 0.00 | 66 | 1016.0 |
| 20260905174136 | 94 | 45 | 1.7 | 5.2 | 0.00 | 0.00 | 0.00 | 67 | 1015.9 |
| 20260905173632 | 93 | 13 | 1.7 | 2.6 | 0.00 | 0.00 | 0.00 | 69 | 1016.0 |
| 20260905173128 | 93 | 143 | 0.9 | 4.3 | 0.00 | 0.00 | 0.00 | 68 | 1016.1 |
| 20260905172627 | 93 | 344 | 0.9 | 1.7 | 0.00 | 0.00 | 0.00 | 68 | 1016.1 |
| 20260905172122 | 94 | 43 | 2.6 | 4.3 | 0.00 | 0.00 | 0.00 | 67 | 1015.9 |
| 20260905171618 | 94 | 316 | 3.5 | 6.1 | 0.00 | 0.00 | 0.00 | 67 | 1016.1 |
| 20260905171114 | 93 | 116 | 2.6 | 4.3 | 0.00 | 0.00 | 0.00 | 67 | 1015.9 |
| 20260905170610 | 92 | 308 | 4.3 | 6.1 | 0.00 | 0.00 | 0.00 | 67 | 1016.1 |
| 20260905170105 | 92 | 141 | 2.6 | 5.2 | 0.00 | 0.00 | 0.00 | 68 | 1016.2 |
| 20260905165559 | 92 | 41 | 4.3 | 7.0 | 0.00 | 0.00 | 0.00 | 68 | 1016.1 |
| 20260905165055 | 92 | 86 | 3.5 | 4.3 | 0.00 | 0.00 | 0.00 | 68 | 1016.2 |
| 20260905164550 | 92 | 187 | 1.7 | 2.6 | 0.00 | 0.00 | 0.00 | 66 | 1016.2 |
| 20260905164044 | 92 | 12 | 3.5 | 5.2 | 0.00 | 0.00 | 0.00 | 67 | 1016.6 |
| 20260905163540 | 93 | 30 | 0.9 | 0.9 | 0.00 | 0.00 | 0.00 | 67 | 1016.4 |
| 20260905163036 | 93 | 141 | 0.9 | 1.7 | 0.00 | 0.00 | 0.00 | 67 | 1016.4 |
| 20260905162532 | 91 | 268 | 0.9 | 2.6 | 0.00 | 0.00 | 0.00 | 68 | 1016.4 |
| 20260905162027 | 92 | 57 | 4.3 | 6.1 | 0.00 | 0.00 | 0.00 | 67 | 1016.2 |
| 20260905161526 | 93 | 209 | 1.7 | 4.3 | 0.00 | 0.00 | 0.00 | 67 | 1016.5 |
| 20260905161024 | 93 | 87 | 1.7 | 2.6 | 0.00 | 0.00 | 0.00 | 65 | 1016.1 |
| 20260905160517 | 92 | 274 | 2.6 | 5.2 | 0.00 | 0.00 | 0.00 | 66 | 1016.3 |
| 20260905160018 | 93 | 85 | 2.6 | 6.1 | 0.00 | 0.00 | 0.00 | 65 | 1016.2 |
| 20260905155518 | 93 | 236 | 2.6 | 4.3 | 0.00 | 0.00 | 0.00 | 64 | 1016.1 |
| 20260905155016 | 92 | 290 | 2.6 | 4.3 | 0.00 | 0.00 | 0.00 | 65 | 1016.2 |
| 20260905154511 | 91 | 294 | 2.6 | 7.0 | 0.00 | 0.00 | 0.00 | 67 | 1016.1 |
| 20260905154007 | 92 | 304 | 2.6 | 5.2 | 0.00 | 0.00 | 0.00 | 66 | 1016.1 |
| 20260905153503 | 91 | 158 | 0.9 | 5.2 | 0.00 | 0.00 | 0.00 | 68 | 1016.0 |
| 20260905153003 | 91 | 31 | 3.5 | 4.3 | 0.00 | 0.00 | 0.00 | 68 | 1016.2 |
| 20260905152502 | 91 | 54 | 3.5 | 4.3 | 0.00 | 0.00 | 0.00 | 68 | 1016.2 |
| 20260905151957 | 92 | 245 | 2.6 | 4.3 | 0.00 | 0.00 | 0.00 | 66 | 1016.1 |
| 20260905151452 | 91 | 217 | 2.6 | 5.2 | 0.00 | 0.00 | 0.00 | 67 | 1016.0 |
| 20260905150947 | 90 | 208 | 0.9 | 4.3 | 0.00 | 0.00 | 0.00 | 70 | 1016.0 |
| 20260905150442 | 90 | 84 | 3.5 | 7.0 | 0.00 | 0.00 | 0.00 | 70 | 1016.0 |
| 20260905145938 | 90 | 196 | 2.6 | 2.6 | 0.00 | 0.00 | 0.00 | 70 | 1016.1 |
| 20260905145433 | 90 | 238 | 2.6 | 4.3 | 0.00 | 0.00 | 0.00 | 69 | 1015.9 |
| 20260905144933 | 90 | 242 | 2.6 | 6.1 | 0.00 | 0.00 | 0.00 | 70 | 1015.9 |
| 20260905144428 | 89 | 236 | 2.6 | 4.3 | 0.00 | 0.00 | 0.00 | 70 | 1016.1 |
| 20260905143926 | 89 | 242 | 2.6 | 4.3 | 0.00 | 0.00 | 0.00 | 69 | 1015.9 |
| 20260905143421 | 89 | 213 | 1.7 | 6.1 | 0.00 | 0.00 | 0.00 | 70 | 1015.9 |
| 20260905142915 | 89 | 209 | 0.9 | 1.7 | 0.00 | 0.00 | 0.00 | 70 | 1015.9 |
| 20260905142414 | 89 | 240 | 0.9 | 1.7 | 0.00 | 0.00 | 0.00 | 70 | 1015.9 |
| 20260905141910 | 90 | 274 | 3.5 | 5.2 | 0.00 | 0.00 | 0.00 | 71 | 1015.7 |
| 20260905141405 | 88 | 186 | 0.0 | 1.7 | 0.00 | 0.00 | 0.00 | 73 | 1015.7 |
| 20260905140901 | 86 | 257 | 1.7 | 4.3 | 0.00 | 0.00 | 0.00 | 74 | 1015.7 |
| 20260905140355 | 86 | 189 | 0.9 | 2.6 | 0.00 | 0.00 | 0.00 | 76 | 1016.0 |
| 20260905135854 | 85 | 268 | 2.6 | 5.2 | 0.00 | 0.00 | 0.00 | 77 | 1015.9 |
| 20260905135350 | 85 | 296 | 2.6 | 4.3 | 0.00 | 0.00 | 0.00 | 77 | 1015.8 |
| 20260905134846 | 84 | 205 | 0.9 | 2.6 | 0.00 | 0.00 | 0.00 | 79 | 1016.1 |
| 20260905134344 | 84 | 253 | 2.6 | 2.6 | 0.00 | 0.00 | 0.00 | 79 | 1015.9 |
| 20260905133838 | 84 | 269 | 1.7 | 4.3 | 0.00 | 0.00 | 0.00 | 80 | 1016.3 |
| 20260905133333 | 83 | 275 | 1.7 | 4.3 | 0.00 | 0.00 | 0.00 | 83 | 1016.0 |
| 20260905132832 | 82 | 205 | 0.9 | 1.7 | 0.00 | 0.00 | 0.00 | 84 | 1016.2 |
| 20260905132329 | 82 | 222 | 0.9 | 0.9 | 0.00 | 0.00 | 0.00 | 84 | 1015.8 |
| 20260905131823 | 82 | 202 | 0.9 | 1.7 | 0.00 | 0.00 | 0.00 | 84 | 1015.9 |
| 20260905131318 | 81 | 215 | 1.7 | 2.6 | 0.00 | 0.00 | 0.00 | 84 | 1016.0 |
| 20260905130813 | 81 | 206 | 0.0 | 0.9 | 0.00 | 0.00 | 0.00 | 86 | 1015.7 |
| 20260905130312 | 81 | 223 | 0.0 | 1.7 | 0.00 | 0.00 | 0.00 | 86 | 1015.6 |
| 20260905125808 | 80 | 217 | 0.0 | 1.7 | 0.00 | 0.00 | 0.00 | 87 | 1015.7 |
| 20260905125305 | 80 | 199 | 0.0 | 0.9 | 0.00 | 0.00 | 0.00 | 86 | 1015.7 |
| 20260905124759 | 80 | 221 | 0.9 | 1.7 | 0.00 | 0.00 | 0.00 | 86 | 1015.6 |
| 20260905124255 | 80 | 255 | 0.9 | 1.7 | 0.00 | 0.00 | 0.00 | 86 | 1015.7 |
| 20260905123750 | 80 | 211 | 1.7 | 1.7 | 0.00 | 0.00 | 0.00 | 86 | 1015.7 |
| 20260905123247 | 80 | 208 | 0.9 | 1.7 | 0.00 | 0.00 | 0.00 | 87 | 1015.5 |
| 20260905122746 | 79 | 201 | 0.0 | 0.9 | 0.00 | 0.00 | 0.00 | 87 | 1015.6 |
| 20260905122240 | 79 | 201 | 0.0 | 0.9 | 0.00 | 0.00 | 0.00 | 87 | 1015.6 |
| 20260905121736 | 79 | 194 | 0.0 | 0.0 | 0.00 | 0.00 | 0.00 | 88 | 1015.5 |
| 20260905121232 | 79 | 208 | 0.0 | 0.9 | 0.00 | 0.00 | 0.00 | 88 | 1015.4 |
| 20260905120730 | 78 | 198 | 0.9 | 0.9 | 0.00 | 0.00 | 0.00 | 89 | 1015.6 |
| 20260905120231 | 78 | 196 | 0.0 | 0.0 | 0.00 | 0.00 | 0.00 | 89 | 1015.3 |
| 20260905115725 | 78 | 198 | 0.0 | 0.0 | 0.00 | 0.00 | 0.00 | 90 | 1015.3 |
| 20260905115220 | 78 | 199 | 0.0 | 0.0 | 0.00 | 0.00 | 0.00 | 90 | 1015.4 |
| 20260905114714 | 78 | 202 | 0.0 | 0.0 | 0.00 | 0.00 | 0.00 | 91 | 1015.3 |
| 20260905114213 | 77 | 200 | 0.0 | 0.0 | 0.00 | 0.00 | 0.00 | 91 | 1015.2 |
| 20260905113713 | 78 | 200 | 0.0 | 0.0 | 0.00 | 0.00 | 0.00 | 90 | 1014.9 |
| 20260905113209 | 78 | 202 | 0.0 | 0.9 | 0.00 | 0.00 | 0.00 | 90 | 1015.0 |
| 20260905112708 | 78 | 199 | 0.0 | 0.0 | 0.00 | 0.00 | 0.00 | 90 | 1015.1 |
| 20260905112204 | 78 | 205 | 0.0 | 0.9 | 0.00 | 0.00 | 0.00 | 89 | 1015.1 |
| 20260905111703 | 78 | 208 | 0.9 | 0.9 | 0.00 | 0.00 | 0.00 | 89 | 1015.2 |
| 20260905111203 | 78 | 201 | 0.0 | 0.9 | 0.00 | 0.00 | 0.00 | 88 | 1015.3 |
| 20260905110703 | 78 | 199 | 0.9 | 0.9 | 0.00 | 0.00 | 0.00 | 89 | 1015.0 |
| 20260905110157 | 78 | 199 | 0.0 | 0.0 | 0.00 | 0.00 | 0.00 | 90 | 1015.1 |
| 20260905105653 | 77 | 203 | 0.0 | 0.0 | 0.00 | 0.00 | 0.00 | 90 | 1015.1 |
| 20260905105151 | 77 | 199 | 0.0 | 0.0 | 0.00 | 0.00 | 0.00 | 91 | 1015.0 |
| 20260905104647 | 77 | 204 | 0.0 | 0.0 | 0.00 | 0.00 | 0.00 | 91 | 1015.3 |
| 20260905104142 | 77 | 208 | 0.0 | 0.0 | 0.00 | 0.00 | 0.00 | 91 | 1015.1 |
| 20260905103637 | 77 | 205 | 0.0 | 0.0 | 0.00 | 0.00 | 0.00 | 92 | 1015.0 |
| 20260905103133 | 77 | 203 | 0.0 | 0.0 | 0.00 | 0.00 | 0.00 | 92 | 1015.1 |
| 20260905102629 | 77 | 206 | 0.0 | 0.0 | 0.00 | 0.00 | 0.00 | 92 | 1015.0 |
| 20260905102125 | 77 | 202 | 0.0 | 0.0 | 0.00 | 0.00 | 0.00 | 92 | 1015.0 |
| 20260905101624 | 77 | 196 | 0.0 | 0.0 | 0.00 | 0.00 | 0.00 | 92 | 1015.4 |
| 20260905101122 | 77 | 194 | 0.0 | 0.0 | 0.00 | 0.00 | 0.00 | 92 | 1015.1 |
| 20260905100618 | 78 | 183 | 0.0 | 0.0 | 0.00 | 0.00 | 0.00 | 91 | 1015.3 |
| 20260905100114 | 78 | 180 | 0.0 | 0.0 | 0.00 | 0.00 | 0.00 | 91 | 1015.2 |
| 20260905095607 | 78 | 185 | 0.0 | 0.0 | 0.00 | 0.00 | 0.00 | 90 | 1015.2 |
| 20260905095102 | 79 | 185 | 0.9 | 0.9 | 0.00 | 0.00 | 0.00 | 89 | 1015.1 |
| 20260905094558 | 79 | 194 | 0.0 | 1.7 | 0.00 | 0.00 | 0.00 | 88 | 1015.1 |
| 20260905094057 | 78 | 199 | 1.7 | 1.7 | 0.00 | 0.00 | 0.00 | 90 | 1015.4 |
| 20260905093556 | 78 | 200 | 0.0 | 0.0 | 0.00 | 0.00 | 0.00 | 91 | 1015.4 |
| 20260905093054 | 78 | 200 | 0.0 | 0.0 | 0.00 | 0.00 | 0.00 | 91 | 1015.2 |
| 20260905092553 | 78 | 200 | 0.0 | 0.0 | 0.00 | 0.00 | 0.00 | 90 | 1015.3 |
| 20260905092049 | 78 | 200 | 0.0 | 0.0 | 0.00 | 0.00 | 0.00 | 90 | 1015.2 |
| 20260905091548 | 78 | 204 | 0.0 | 0.9 | 0.00 | 0.00 | 0.00 | 90 | 1015.3 |
| 20260905091042 | 78 | 201 | 0.0 | 0.0 | 0.00 | 0.00 | 0.00 | 90 | 1015.2 |
| 20260905090537 | 78 | 200 | 0.0 | 0.0 | 0.00 | 0.00 | 0.00 | 90 | 1015.3 |
| 20260905090032 | 79 | 205 | 0.0 | 0.0 | 0.00 | 0.00 | 0.00 | 89 | 1015.3 |
| 20260905085530 | 79 | 200 | 0.0 | 0.0 | 0.00 | 0.00 | 0.00 | 89 | 1015.4 |
| 20260905085027 | 79 | 200 | 0.0 | 0.0 | 0.00 | 0.00 | 0.00 | 89 | 1015.3 |
| 20260905084526 | 79 | 200 | 0.0 | 0.0 | 0.00 | 0.00 | 0.00 | 89 | 1015.2 |
| 20260905084021 | 79 | 200 | 0.0 | 0.0 | 0.00 | 0.00 | 0.00 | 89 | 1015.1 |
| 20260905083516 | 79 | 201 | 0.0 | 0.0 | 0.00 | 0.00 | 0.00 | 89 | 1015.4 |
| 20260905083013 | 79 | 202 | 0.0 | 0.0 | 0.00 | 0.00 | 0.00 | 90 | 1015.4 |
| 20260905082508 | 79 | 200 | 0.0 | 0.0 | 0.00 | 0.00 | 0.00 | 90 | 1015.2 |
| 20260905082003 | 79 | 200 | 0.0 | 0.0 | 0.00 | 0.00 | 0.00 | 90 | 1015.1 |
| 20260905081457 | 80 | 201 | 0.0 | 0.0 | 0.00 | 0.00 | 0.00 | 88 | 1015.3 |
| 20260905080957 | 80 | 202 | 0.9 | 0.9 | 0.00 | 0.00 | 0.00 | 88 | 1015.5 |
| 20260905080452 | 80 | 195 | 0.9 | 1.7 | 0.00 | 0.00 | 0.00 | 88 | 1015.3 |
| 20260905075950 | 79 | 199 | 0.0 | 0.0 | 0.00 | 0.00 | 0.00 | 90 | 1015.3 |
| 20260905075445 | 79 | 200 | 0.0 | 0.0 | 0.00 | 0.00 | 0.00 | 90 | 1015.3 |
| 20260905074944 | 79 | 202 | 0.0 | 0.9 | 0.00 | 0.00 | 0.00 | 90 | 1015.4 |
| 20260905074440 | 79 | 198 | 0.0 | 0.0 | 0.00 | 0.00 | 0.00 | 90 | 1015.3 |
| 20260905073935 | 80 | 197 | 0.0 | 0.9 | 0.00 | 0.00 | 0.00 | 89 | 1015.2 |
| 20260905073430 | 80 | 197 | 0.0 | 0.0 | 0.00 | 0.00 | 0.00 | 88 | 1015.4 |
| 20260905072926 | 80 | 185 | 0.9 | 1.7 | 0.00 | 0.00 | 0.00 | 88 | 1015.5 |
| 20260905072421 | 80 | 195 | 0.9 | 1.7 | 0.00 | 0.00 | 0.00 | 88 | 1015.4 |
| 20260905071917 | 80 | 194 | 0.9 | 1.7 | 0.00 | 0.00 | 0.00 | 88 | 1015.4 |
| 20260905071414 | 80 | 191 | 0.9 | 0.9 | 0.00 | 0.00 | 0.00 | 87 | 1015.3 |
| 20260905070912 | 80 | 193 | 0.9 | 0.9 | 0.00 | 0.00 | 0.00 | 87 | 1015.4 |
| 20260905070409 | 80 | 200 | 0.9 | 0.9 | 0.00 | 0.00 | 0.00 | 88 | 1015.5 |
| 20260905065909 | 80 | 191 | 1.7 | 1.7 | 0.00 | 0.00 | 0.00 | 91 | 1015.6 |
| 20260905065407 | 80 | 198 | 0.0 | 0.0 | 0.00 | 0.00 | 0.00 | 92 | 1015.7 |
| 20260905064902 | 80 | 199 | 0.0 | 0.0 | 0.00 | 0.00 | 0.00 | 92 | 1015.5 |
| 20260905064358 | 80 | 199 | 0.0 | 0.0 | 0.00 | 0.00 | 0.00 | 92 | 1015.5 |
| 20260905063857 | 80 | 199 | 0.0 | 0.0 | 0.00 | 0.00 | 0.00 | 91 | 1015.6 |
| 20260905063352 | 80 | 200 | 0.0 | 0.0 | 0.00 | 0.00 | 0.00 | 91 | 1015.6 |
| 20260905062849 | 81 | 200 | 0.0 | 0.0 | 0.00 | 0.00 | 0.00 | 91 | 1015.4 |
| 20260905062348 | 81 | 200 | 0.0 | 0.0 | 0.00 | 0.00 | 0.00 | 90 | 1015.7 |
| 20260905061843 | 80 | 200 | 0.0 | 0.0 | 0.00 | 0.00 | 0.00 | 91 | 1015.4 |
| 20260905061337 | 81 | 200 | 0.0 | 0.0 | 0.00 | 0.00 | 0.00 | 91 | 1015.7 |
| 20260905060832 | 81 | 203 | 0.0 | 0.0 | 0.00 | 0.00 | 0.00 | 90 | 1015.7 |
| 20260905060329 | 81 | 203 | 0.0 | 0.0 | 0.00 | 0.00 | 0.00 | 91 | 1016.0 |
| 20260905055827 | 80 | 193 | 0.0 | 0.0 | 0.00 | 0.00 | 0.00 | 91 | 1015.8 |
| 20260905055322 | 80 | 193 | 0.0 | 0.0 | 0.00 | 0.00 | 0.00 | 91 | 1015.8 |
| 20260905054822 | 80 | 193 | 0.0 | 0.0 | 0.00 | 0.00 | 0.00 | 91 | 1015.6 |
| 20260905054319 | 80 | 193 | 0.0 | 0.0 | 0.00 | 0.00 | 0.00 | 91 | 1016.0 |
| 20260905053818 | 80 | 193 | 0.0 | 0.0 | 0.00 | 0.00 | 0.00 | 92 | 1015.9 |
| 20260905053313 | 80 | 190 | 0.0 | 0.0 | 0.00 | 0.00 | 0.00 | 92 | 1016.0 |
| 20260905052813 | 80 | 190 | 0.0 | 0.0 | 0.00 | 0.00 | 0.00 | 91 | 1015.8 |
| 20260905052308 | 80 | 193 | 0.0 | 0.0 | 0.00 | 0.00 | 0.00 | 91 | 1015.7 |
| 20260905051808 | 80 | 193 | 0.0 | 0.0 | 0.00 | 0.00 | 0.00 | 91 | 1016.0 |
| 20260905051304 | 80 | 193 | 0.0 | 0.0 | 0.00 | 0.00 | 0.00 | 91 | 1015.9 |
| 20260905050801 | 80 | 193 | 0.0 | 0.0 | 0.00 | 0.00 | 0.00 | 91 | 1015.7 |
| 20260905050256 | 80 | 194 | 0.0 | 0.0 | 0.00 | 0.00 | 0.00 | 90 | 1015.7 |
| 20260905045751 | 81 | 194 | 0.0 | 0.0 | 0.00 | 0.00 | 0.00 | 90 | 1015.9 |
| 20260905045246 | 80 | 194 | 0.0 | 0.0 | 0.00 | 0.00 | 0.00 | 90 | 1015.8 |
| 20260905044742 | 81 | 194 | 0.0 | 0.0 | 0.00 | 0.00 | 0.00 | 90 | 1015.8 |
| 20260905044237 | 81 | 194 | 0.0 | 0.0 | 0.00 | 0.00 | 0.00 | 90 | 1015.9 |
| 20260905043735 | 81 | 194 | 0.0 | 0.0 | 0.00 | 0.00 | 0.00 | 90 | 1015.9 |
| 20260905043230 | 81 | 184 | 0.0 | 0.0 | 0.00 | 0.00 | 0.00 | 90 | 1015.9 |
| 20260905042725 | 81 | 183 | 0.0 | 0.0 | 0.00 | 0.00 | 0.00 | 90 | 1015.8 |
| 20260905042224 | 81 | 183 | 0.0 | 0.0 | 0.00 | 0.00 | 0.00 | 90 | 1016.0 |
| 20260905041720 | 81 | 190 | 0.0 | 0.0 | 0.00 | 0.00 | 0.00 | 90 | 1015.8 |
| 20260905041215 | 81 | 190 | 0.0 | 0.0 | 0.00 | 0.00 | 0.00 | 90 | 1015.8 |
| 20260905040709 | 82 | 190 | 0.0 | 0.0 | 0.00 | 0.00 | 0.00 | 89 | 1015.6 |
| 20260905040208 | 81 | 193 | 0.0 | 0.0 | 0.00 | 0.00 | 0.00 | 89 | 1015.6 |
| 20260905035703 | 81 | 193 | 0.0 | 0.0 | 0.00 | 0.00 | 0.00 | 89 | 1015.7 |
| 20260905035200 | 82 | 198 | 0.0 | 0.0 | 0.00 | 0.00 | 0.00 | 89 | 1015.7 |
| 20260905034656 | 82 | 198 | 0.0 | 0.0 | 0.00 | 0.00 | 0.00 | 89 | 1015.7 |
| 20260905034155 | 82 | 192 | 0.0 | 0.0 | 0.00 | 0.00 | 0.00 | 89 | 1015.8 |
| 20260905033654 | 82 | 191 | 0.0 | 0.0 | 0.00 | 0.00 | 0.00 | 88 | 1015.8 |
| 20260905033149 | 82 | 191 | 0.0 | 0.0 | 0.00 | 0.00 | 0.00 | 88 | 1015.7 |
| 20260905032649 | 82 | 192 | 0.0 | 0.0 | 0.00 | 0.00 | 0.00 | 87 | 1015.7 |
| 20260905032144 | 82 | 200 | 0.0 | 0.0 | 0.00 | 0.00 | 0.00 | 88 | 1016.0 |
| 20260905031640 | 82 | 200 | 0.0 | 0.0 | 0.00 | 0.00 | 0.00 | 87 | 1015.9 |
| 20260905031135 | 82 | 200 | 0.0 | 0.0 | 0.00 | 0.00 | 0.00 | 87 | 1016.0 |
| 20260905030630 | 83 | 200 | 0.0 | 0.0 | 0.00 | 0.00 | 0.00 | 86 | 1015.9 |